Location: ??????????
(54.8537°N, 38.8755°E)
Time: 22:19:57
(UTC+00:00)

Tiros 1 - Pass Details

Date: 14 September 2024
Orbit: 623 x 654 km, 48.4° (Epoch: 09 October)

Event Time Altitude Azimuth Distance (km) Brightness Sun altitude
Rises 16:11:46 0° 257° (WSW) 2,905 11.9 -4.9°
Reaches altitude 10° 16:14:11 10° 249° (WSW) 2,002 10.7 -5.3°
Maximum altitude 16:18:26 37° 182° (S) 976 8.0 -5.9°
Drops below altitude 10° 16:22:42 10° 115° (ESE) 2,018 9.0 -6.5°
Enters shadow 16:23:11 - 113° (ESE) 2,195 9.2 -6.5°
Sets 16:25:09 0° 107° (ESE) 2,932 - -6.8°
